This is the latest recevied weather packets stored in our database for station/object AF5AA. If no packets are shown the sender has not sent any weather packets the latest 10 day(s).
| Time | Temp. | Humidity | Pressure | Rain* | Wind** | Luminosity | Snow |
|---|---|---|---|---|---|---|---|
| 1778008297 | 27.78° C | 75% | 1006.4 hPa | 0 mm | - | 104 W/m² | - |
| 1778007993 | 27.78° C | 73% | 1006.2 hPa | 0 mm | - | 113 W/m² | - |
| 1778007687 | 27.78° C | 74% | 1006.3 hPa | 0 mm | - | 156 W/m² | - |
| 1778007385 | 27.78° C | 75% | 1006.5 hPa | 0 mm | - | 226 W/m² | - |
| 1778007081 | 27.22° C | 75% | 1006.3 hPa | 0 mm | - | 279 W/m² | - |
| 1778006778 | 27.22° C | 76% | 1006.4 hPa | 0 mm | - | 275 W/m² | - |
| 1778006474 | 26.67° C | 77% | 1006.2 hPa | 0 mm | - | 223 W/m² | - |
| 1778006171 | 26.67° C | 77% | 1006.4 hPa | 0 mm | - | 145 W/m² | - |
| 1778005869 | 26.67° C | 78% | 1006.6 hPa | 0 mm | - | 177 W/m² | - |
| 1778005565 | 26.67° C | 77% | 1006.5 hPa | 0 mm | - | 156 W/m² | - |
| 1778005262 | 26.11° C | 78% | 1006.6 hPa | 0 mm | - | 81 W/m² | - |
| 1778004959 | 26.11° C | 77% | 1006.7 hPa | 0 mm | - | 107 W/m² | - |
| 1778004656 | 26.11° C | 78% | 1006.7 hPa | 0 mm | - | 107 W/m² | - |
| 1778004351 | 26.67° C | 78% | 1006.7 hPa | 0 mm | - | 91 W/m² | - |
| 1778004049 | 26.11° C | 79% | 1006.7 hPa | 0 mm | - | 143 W/m² | - |
| 1778003744 | 26.11° C | 79% | 1006.7 hPa | 0 mm | - | 116 W/m² | - |
| 1778003441 | 26.11° C | 78% | 1006.6 hPa | 0 mm | - | 113 W/m² | - |
| 1778003138 | 26.11° C | 79% | 1006.6 hPa | 0 mm | - | 87 W/m² | - |
| 1778002834 | 26.11° C | 79% | 1006.9 hPa | 0 mm | - | 99 W/m² | - |
| 1778002531 | 25.56° C | 79% | 1006.9 hPa | 0 mm | - | 138 W/m² | - |
| 1778002228 | 25.56° C | 80% | 1006.7 hPa | 0 mm | - | 89 W/m² | - |
| 1778001926 | 25.56° C | 80% | 1006.8 hPa | 0 mm | - | 122 W/m² | - |
| 1778001621 | 25.56° C | 80% | 1006.8 hPa | 0 mm | - | 107 W/m² | - |
| 1778001317 | 25° C | 82% | 1006.9 hPa | 0 mm | - | 140 W/m² | - |
| 1778001014 | 25° C | 82% | 1007.1 hPa | 0 mm | - | 93 W/m² | - |
* Rain latest hour (hover to see other rain measurements)
** Current wind speed in m/s (hover to see current wind gust speed)